Location: Newark
(15.4608°S, 41.1635°W)
Time: 00:49:22
(UTC+00:00)

N. Korean satellite - Pass Details

Date: 20 June 2021
Orbit: 451 x 498 km, 97.2° (Epoch: 30 July)

Event Time Altitude Azimuth Distance (km) Brightness Sun altitude
Rises 07:52:04 0° 358° (N) 2,567 10.5 -18.3°
Reaches altitude 10° 07:54:12 10° 351° (N) 1,693 9.4 -17.8°
Maximum altitude 07:57:40 41° 280° (W) 741 7.0 -17.0°
Enters shadow 07:58:17 37° 253° (WSW) 790 7.1 -16.9°
